Regional Weather Roundup
Issued by NWS Kansas City/Pleasant Hill, MO

Home | Current Version | Previous Version | Graphics & Text | Print | Product List | Glossary Off
Versions: 1 2 3 4 5 6 7 8 9 10 11 12 13 14 15 16 17 18 19 20 21 22 23 24 25 26 27

000
ASUS43 KEAX 241010
RWREAX

WEATHER ROUNDUP FOR EASTERN KANSAS AND NORTHWEST MISSOURI
NATIONAL WEATHER SERVICE KANSAS CITY/PLEASANT HILL MO
500 AM CDT FRI MAR 24 2017

KSZ040-057-103>105-MOZ028-029-037-043-241100-
...KANSAS CITY METROPOLITAN AREA...

CITY           SKY/WX    TMP DP  RH WIND       PRES   REMARKS
K.C. INTL      PTCLDY    67  49  52 S15G29    29.78F
K.C. DOWNTOWN  PTCLDY    68  49  50 S9        29.77F
LEES SUMMIT    PTCLDY    66  49  54 S17G24    29.79F
OLATHE - IXD   PTCLDY    66  48  52 S14G25    29.78F
OLATHE - OJC   CLEAR     66  49  54 S15G24    29.79F
LAWRENCE       MOCLDY    68  50  52 SE17      29.75F

$$

MOZ001>008-011>017-020>025-030>033-038>040-044>046-053-054-241100-
...NORTHERN AND CENTRAL MISSOURI...

CITY           SKY/WX    TMP DP  RH WIND       PRES   REMARKS
ST. JOSEPH     PTCLDY    64  51  62 S12       29.76F
MOSBY          CLOUDY    64  46  52 S7        29.80S
WARRENSBURG    CLOUDY    63  45  51 S14       29.83F
WHITEMAN AFB   PTCLDY    65  48  54 S16       29.83F
CLINTON        CLOUDY    66  48  52 S13       29.87F
SEDALIA        PTCLDY    66  48  52 S14       29.88S
WARSAW         NOT AVBL
CHILLICOTHE      N/A     53  47  79 SE3       29.83F
KIRKSVILLE     CLOUDY    61  32  33 S12       29.86F

$$

MOZ041-047>049-056>058-063>065-088>090-097-241100-
...EASTERN AND SOUTHERN MISSOURI...

CITY           SKY/WX    TMP DP  RH WIND       PRES   REMARKS
ST. LOUIS INTL PTCLDY    62  49  62 S9        29.94R
SPIRIT OF STL  PTCLDY    66  51  58 S9        29.91R
COLUMBIA       CLEAR     66  49  54 SW13      29.91R
JEFFERSON CITY CLEAR     72  48  42 SW8       29.91R
ROLLA          CLEAR     66  48  52 S17       29.89F
OSAGE BEACH    CLEAR    N/A N/A N/A S9        29.93R
SPRINGFIELD    CLOUDY    59  46  62 S8        29.92R
BRANSON        CLOUDY    68  46  45 S6        29.96R
JOPLIN         PTCLDY    67  45  45 S15       29.86F
WEST PLAINS    CLEAR     62  50  64 S12       29.97S

$$

IAZ060-094-KSZ022-034>040-054-083-096-NEZ052-066-093-241100-
...KANSAS...SOUTHEAST NEBRASKA AND IOWA...

CITY           SKY/WX    TMP DP  RH WIND       PRES   REMARKS
TOPEKA         PTCLDY    67  50  54 S13       29.72F
MANHATTAN      CLOUDY    69  47  45 S16G24    29.66F
EMPORIA        CLOUDY    63  49  60 S13       29.74F
CHANUTE        CLEAR     66  44  45 S16       29.79F
WICHITA        CLOUDY    68  41  37 S26G37    29.68F
OMAHA          CLOUDY    54  50  86 NW7       29.74F
LINCOLN        CLOUDY    59  56  89 NE8       29.73F
FALLS CITY     CLOUDY    66  49  54 S12       29.71F
LAMONI         CLOUDY    59  46  62 S7        29.77F
DES MOINES     CLOUDY    59  46  62 S8        29.75S

$$





USA.gov is the U.S. government's official web portal to all federal, state and local government web resources and services.